Location: Pasadena
(34.1478°N, 118.1445°W)
Time: 18:16:53
(UTC-07:00)

ISS - Pass Details

Date: 04 February 2015
Orbit: 417 x 422 km, 51.6° (Epoch: 20 June)

Event Time Altitude Azimuth Distance (km) Brightness Sun altitude
Rises 18:24:27 0° 324° (NW) 2,424 0.5 -12.6°
Reaches altitude 10° 18:26:54 10° 340° (NNW) 1,546 -0.8 -13.1°
Maximum altitude 18:29:43 22° 34° (NNE) 986 -2.3 -13.6°
Enters shadow 18:30:16 22° 48° (NE) 1,011 -2.3 -13.7°
